(225674) = 2001 OA96

Discovered at Bergisch Gladbach on 2001-07-29 by W. Bickel.

Orbit

Orbit type: Main Belt

Note: WebGL enabled browser required.

epoch2024-03-31.0
epoch JD2460400.5
perihelion date2025-01-18.40061
perihelion JD2460693.90061
argument of perihelion (°)217.75331
ascending node (°)139.22579
inclination (°)3.09827
eccentricity0.2185122
perihelion distance (AU)1.9273026
Tisserand w.r.t. Jupiter3.5
ΔV w.r.t. Earth (km/sec)8.7
semimajor axis (AU)2.4661967
mean anomaly (°)285.33393
mean daily motion (°/day)0.25448500
aphelion distance (AU)3.005
period (years)3.87
P-vector [x]0.99802591
P-vector [y]-0.03580999
P-vector [z]-0.05159379
Q-vector [x]0.05194537
Q-vector [y]0.93240266
Q-vector [z]0.35766878
absolute magnitude17.43
phase slope0.15
uncertainty0
referenceMPEC 2024-C107
observations used217
oppositions11
arc length (days)7909
first opposition used2001
last opposition used2023
residual rms (arc-secs)0.78
perturbers coarse indicatorM-v
perturbers precise indicator003Ek
first observation date used2001-07-29.0
last observation date used2023-03-25.0
computer nameMPCLINUX
JD of orbit computation2456670.804571
perihelion JD uncertainty (days)1.8288E-04
argument of perihelion uncertainty (°)1.2495E-04
ascending node uncertainty (°)1.1546E-04
inclination uncertainty (°)5.4757E-06
eccentricity uncertainty 1.6266E-07
perihelion distance uncertainty (AU)3.7509E-07
Minimum Orbit Intersection Distances (in AU)
for orbit epoch: 2460200.5, reference: E2024-CA7
Mercury1.55594
Venus1.20084
Earth0.92337
Mars0.53469
Jupiter2.42959
Saturn6.36098
Uranus15.4488
Neptune27.5546

Observations

223 total observations over interval: 2001 07 29.05207 – 2023 03 25.482451
These data are available for download (format description).

Date (UT) J2000 RA J2000 Dec Magn Location Ref
2001 07 29.05207 22 42 07.98 -08 36 01.8 18.8 R 621 – Bergisch Gladbach MPS 32905
2001 07 29.05587 22 42 07.91 -08 36 02.6 19.3 R 621 – Bergisch Gladbach MPS 32905
2001 07 29.05968 22 42 07.86 -08 36 03.6 19.0 R 621 – Bergisch Gladbach MPS 32905
2001 07 29.06348 22 42 07.80 -08 36 04.4 18.6 R 621 – Bergisch Gladbach MPS 32905
2001 07 30.06403 22 41 55.66 -08 39 54.7 19.1 R 621 – Bergisch Gladbach MPS 32905
2001 07 30.06787 22 41 55.58 -08 39 55.6 18.5 R 621 – Bergisch Gladbach MPS 32905
2001 07 30.07170 22 41 55.55 -08 39 56.5 18.8 R 621 – Bergisch Gladbach MPS 32905
2001 08 14.04094 22 35 37.09 -09 59 21.4 17.8 R 621 – Bergisch Gladbach MPS 34503
2001 08 15.06741 22 34 59.20 -10 06 02.6 18.7 R 621 – Bergisch Gladbach MPS 34503
2001 08 15.07125 22 34 58.99 -10 06 03.2 18.1 R 621 – Bergisch Gladbach MPS 34503
2001 08 15.07509 22 34 58.87 -10 06 05.5 18.4 R 621 – Bergisch Gladbach MPS 34503
2001 08 16.27671 22 34 13.54 -10 14 01.5 19.1   704 – Lincoln Laboratory ETS, New Mexico MPS 32905
2001 08 16.28898 22 34 12.89 -10 14 07.0 19.1   704 – Lincoln Laboratory ETS, New Mexico MPS 32905
2001 08 16.30130 22 34 12.34 -10 14 12.1 19.1   704 – Lincoln Laboratory ETS, New Mexico MPS 32905
2001 08 16.32577 22 34 11.32 -10 14 22.2 19.1   704 – Lincoln Laboratory ETS, New Mexico MPS 32905
2001 08 22.99957 22 29 32.45 -11 00 47.4 17.7 R 621 – Bergisch Gladbach MPS 34503
2001 08 23.00336 22 29 32.30 -11 00 48.9 18.5 R 621 – Bergisch Gladbach MPS 34503
2001 08 23.00714 22 29 32.12 -11 00 51.1 17.9 R 621 – Bergisch Gladbach MPS 34503
2001 08 23.27894 22 29 20.23 -11 02 45.0 18.6 R 699 – Lowell Observatory-LONEOS MPS 33405
2001 08 23.30231 22 29 19.15 -11 02 54.6   699 – Lowell Observatory-LONEOS MPS 33405
2001 08 23.32571 22 29 17.99 -11 03 04.9   699 – Lowell Observatory-LONEOS MPS 33405
2001 08 23.34917 22 29 16.98 -11 03 15.4   699 – Lowell Observatory-LONEOS MPS 33405
2001 08 27.24354 22 26 22.15 -11 31 05.3 18.6 R 699 – Lowell Observatory-LONEOS MPS 33405
2001 08 27.26704 22 26 20.88 -11 31 13.6   699 – Lowell Observatory-LONEOS MPS 33405
2001 08 27.29064 22 26 19.76 -11 31 23.4   699 – Lowell Observatory-LONEOS MPS 33405
2001 08 27.31408 22 26 18.61 -11 31 32.7   699 – Lowell Observatory-LONEOS MPS 33405
2001 09 07.20772 22 18 15.16 -12 45 30.9 19.8   704 – Lincoln Laboratory ETS, New Mexico MPS 34503
2001 09 07.22153 22 18 14.54 -12 45 37.5 19.4   704 – Lincoln Laboratory ETS, New Mexico MPS 34503
2001 09 07.23540 22 18 13.87 -12 45 42.5 19.4   704 – Lincoln Laboratory ETS, New Mexico MPS 34503
2001 09 16.28820 22 12 40.54 -13 36 08.7 19.4   704 – Lincoln Laboratory ETS, New Mexico MPS 35869
2001 09 16.30254 22 12 40.03 -13 36 12.7 19.7   704 – Lincoln Laboratory ETS, New Mexico MPS 35869
2001 09 16.31685 22 12 39.56 -13 36 17.3 19.2   704 – Lincoln Laboratory ETS, New Mexico MPS 35869
2001 09 16.33119 22 12 39.02 -13 36 20.4 20.2   704 – Lincoln Laboratory ETS, New Mexico MPS 35869
2001 09 16.34646 22 12 38.55 -13 36 24.8 19.3   704 – Lincoln Laboratory ETS, New Mexico MPS 35869
2001 09 19.18160 22 11 17.86 -13 49 08.1 19.3   704 – Lincoln Laboratory ETS, New Mexico MPS 35869
2001 09 19.19581 22 11 17.34 -13 49 11.3 19.5   704 – Lincoln Laboratory ETS, New Mexico MPS 35869
2001 09 19.21001 22 11 16.99 -13 49 14.9 19.4   704 – Lincoln Laboratory ETS, New Mexico MPS 35869
2001 09 19.22421 22 11 16.56 -13 49 18.9 19.5   704 – Lincoln Laboratory ETS, New Mexico MPS 35869
2001 09 19.23839 22 11 16.14 -13 49 22.0 19.6   704 – Lincoln Laboratory ETS, New Mexico MPS 35869
2001 09 21.17969 22 10 28.55 -13 57 04.2 19.3   704 – Lincoln Laboratory ETS, New Mexico MPS 35869
2001 09 21.19391 22 10 28.19 -13 57 07.6 19.5   704 – Lincoln Laboratory ETS, New Mexico MPS 35869
2001 09 21.20814 22 10 27.80 -13 57 10.9 19.6   704 – Lincoln Laboratory ETS, New Mexico MPS 35869
2001 09 21.22251 22 10 27.47 -13 57 14.5 19.7   704 – Lincoln Laboratory ETS, New Mexico MPS 35869
2001 09 21.23675 22 10 27.08 -13 57 17.4 19.3   704 – Lincoln Laboratory ETS, New Mexico MPS 35869
2005 09 11.40654 00 36 54.42 -00 18 37.6 19.7 V 691 – Steward Observatory, Kitt Peak-Spacewatch MPS 142506
2005 09 11.42388 00 36 53.81 -00 18 44.5 19.6 V 691 – Steward Observatory, Kitt Peak-Spacewatch MPS 142506
2005 09 11.44129 00 36 53.21 -00 18 51.2 19.8 V 691 – Steward Observatory, Kitt Peak-Spacewatch MPS 142506
2005 09 13.307027 00 35 51.543 -00 31 09.66 19.67 V 645 – Apache Point-Sloan Digital Sky Survey MPS 390333
2005 09 13.30740 00 35 51.54 -00 31 09.6 20.2   705 – Apache Point MPS 211521
2005 09 13.30823 00 35 51.51 -00 31 09.9 19.6 V 705 – Apache Point MPS 211521
2005 09 13.310499 00 35 51.413 -00 31 11.04 20.50   645 – Apache Point-Sloan Digital Sky Survey MPS 390333
2005 09 14.30089 00 35 16.69 -00 37 50.4 20.3   705 – Apache Point MPS 211521
2005 09 14.30172 00 35 16.66 -00 37 50.7 19.6 V 705 – Apache Point MPS 211521
2005 09 23.18643 00 29 20.35 -01 39 42.5 19.4 V 691 – Steward Observatory, Kitt Peak-Spacewatch MPS 142506
2005 09 23.20381 00 29 19.55 -01 39 49.8 19.4 V 691 – Steward Observatory, Kitt Peak-Spacewatch MPS 142506
2005 09 23.22120 00 29 18.76 -01 39 57.3 19.5 V 691 – Steward Observatory, Kitt Peak-Spacewatch MPS 142506
2005 09 24.35224 00 28 28.68 -01 47 52.5 18.8 R 699 – Lowell Observatory-LONEOS MPS 142506
2005 09 24.36679 00 28 28.05 -01 47 59.6   699 – Lowell Observatory-LONEOS MPS 142506
2005 09 24.38133 00 28 27.29 -01 48 05.2   699 – Lowell Observatory-LONEOS MPS 142506
2005 09 24.39589 00 28 26.39 -01 48 10.1   699 – Lowell Observatory-LONEOS MPS 142506
2005 09 28.16082 00 25 38.73 -02 14 11.6 18.9 R 734 – Farpoint Observatory, Eskridge MPS 142506
2005 09 28.16527 00 25 38.54 -02 14 13.2 19.0 R 734 – Farpoint Observatory, Eskridge MPS 142506
2005 09 28.16959 00 25 38.14 -02 14 15.6 19.1 R 932 – John J. McCarthy Obs., New Milford MPS 142506
2005 09 28.16968 00 25 38.33 -02 14 15.1 19.1 R 734 – Farpoint Observatory, Eskridge MPS 142506
2005 09 28.17411 00 25 38.13 -02 14 17.0 18.9 R 734 – Farpoint Observatory, Eskridge MPS 142506
2005 09 28.17706 00 25 38.00 -02 14 18.6 19.0 R 734 – Farpoint Observatory, Eskridge MPS 142506
2005 09 28.19833 00 25 36.76 -02 14 26.9 19.4 R 932 – John J. McCarthy Obs., New Milford MPS 142506
2005 09 28.23168 00 25 35.15 -02 14 40.7 19.5 R 932 – John J. McCarthy Obs., New Milford MPS 142506
2005 09 28.26879 00 25 33.38 -02 14 55.7 19.5 R 932 – John J. McCarthy Obs., New Milford MPS 142506
2005 09 28.29353 00 25 32.20 -02 15 05.9 19.1 R 932 – John J. McCarthy Obs., New Milford MPS 142506
2005 09 29.17933 00 24 52.54 -02 21 03.9 19.1 R 932 – John J. McCarthy Obs., New Milford MPS 142506
2005 09 29.23151 00 24 50.03 -02 21 24.9 19.2 R 932 – John J. McCarthy Obs., New Milford MPS 142506
2005 09 29.26879 00 24 48.25 -02 21 39.9 19.3 R 932 – John J. McCarthy Obs., New Milford MPS 142506
2005 09 29.29167 00 24 47.14 -02 21 49.1 19.4 R 932 – John J. McCarthy Obs., New Milford MPS 142506
2005 09 30.26230 00 24 03.73 -02 28 15.4 18.7 R 699 – Lowell Observatory-LONEOS MPS 143492
2005 09 30.28712 00 24 02.54 -02 28 25.1   699 – Lowell Observatory-LONEOS MPS 143492
2005 09 30.31194 00 24 01.36 -02 28 34.9   699 – Lowell Observatory-LONEOS MPS 143492
2005 09 30.33675 00 24 00.12 -02 28 44.0   699 – Lowell Observatory-LONEOS MPS 143492
2005 10 01.21014 00 23 21.22 -02 34 25.9 19.2   704 – Lincoln Laboratory ETS, New Mexico MPS 143492
2005 10 01.22067 00 23 20.64 -02 34 30.0 19.8   704 – Lincoln Laboratory ETS, New Mexico MPS 143492
2005 10 01.23122 00 23 20.11 -02 34 34.3 19.9   704 – Lincoln Laboratory ETS, New Mexico MPS 143492
2005 10 01.24173 00 23 19.68 -02 34 38.0 19.3   704 – Lincoln Laboratory ETS, New Mexico MPS 143492
2005 10 01.25228 00 23 19.15 -02 34 41.6 19.4   704 – Lincoln Laboratory ETS, New Mexico MPS 143492
2005 10 05.20171 00 20 24.67 -02 59 19.9 18.8   704 – Lincoln Laboratory ETS, New Mexico MPS 143492
2005 10 05.21247 00 20 24.20 -02 59 23.2 19.0   704 – Lincoln Laboratory ETS, New Mexico MPS 143492
2005 10 05.22324 00 20 23.71 -02 59 27.0 18.9   704 – Lincoln Laboratory ETS, New Mexico MPS 143492
2005 10 05.23403 00 20 23.22 -02 59 30.7 19.0   704 – Lincoln Laboratory ETS, New Mexico MPS 143492
